YH8VA-1 Weather Reports


Display with metric or nautical units.
time (UTC)temp
F
wind
direction
speed
MPH
gust
MPH
rain 1hr
in
rain 24hr
in
rain mn
in
humidity
%
barometer
mb
20260502163835 93 0 0.0 0.0 0.00 0.00 0.00 57 999.0
20260502163313 93 0 0.0 0.0 0.00 0.00 0.00 57 999.0
20260502162751 93 0 0.0 0.0 0.00 0.00 0.00 57 999.0
20260502162229 93 0 0.0 0.0 0.00 0.00 0.00 57 999.0
20260502161707 93 0 0.0 0.0 0.00 0.00 0.00 57 999.0
20260502161145 93 0 0.0 0.0 0.00 0.00 0.00 56 999.0
20260502160623 93 0 0.0 0.0 0.00 0.00 0.00 56 999.0
20260502152327 93 0 0.0 0.0 0.00 0.00 0.00 56 999.0
20260502151805 93 0 0.0 0.0 0.00 0.00 0.00 56 999.0
20260502151243 93 0 0.0 0.0 0.00 0.00 0.00 56 999.0
20260502150721 93 0 0.0 0.0 0.00 0.00 0.00 56 999.0
20260502150158 93 0 0.0 0.0 0.00 0.00 0.00 56 999.0
20260502130354 94 0 0.0 0.0 0.00 0.00 0.00 55 999.0
20260502123705 94 0 0.0 0.0 0.00 0.00 0.00 55 999.0
20260502123142 94 0 0.0 0.0 0.00 0.00 0.00 55 999.0
20260502122620 94 0 0.0 0.0 0.00 0.00 0.00 55 999.0
20260502122059 94 0 0.0 0.0 0.00 0.00 0.00 55 999.0
20260502121536 94 0 0.0 0.0 0.00 0.00 0.00 55 999.0
20260502121014 94 0 0.0 0.0 0.00 0.00 0.00 55 999.0
20260502120452 94 0 0.0 0.0 0.00 0.00 0.00 55 999.0
20260502115931 95 0 0.0 0.0 0.00 0.00 0.00 55 999.0
20260502115408 95 0 0.0 0.0 0.00 0.00 0.00 55 998.0
20260502114846 94 0 0.0 0.0 0.00 0.00 0.00 55 998.0
20260502114324 95 0 0.0 0.0 0.00 0.00 0.00 55 998.0
20260502113802 95 0 0.0 0.0 0.00 0.00 0.00 55 998.0
20260502113240 95 0 0.0 0.0 0.00 0.00 0.00 55 998.0
20260502112718 95 0 0.0 0.0 0.00 0.00 0.00 55 998.0
20260502112157 95 0 0.0 0.0 0.00 0.00 0.00 55 998.0
20260502111635 95 0 0.0 0.0 0.00 0.00 0.00 55 998.0
20260502111112 95 0 0.0 0.0 0.00 0.00 0.00 54 998.0
20260502110550 95 0 0.0 0.0 0.00 0.00 0.00 54 998.0
20260502110028 95 0 0.0 0.0 0.00 0.00 0.00 54 998.0
20260502105506 95 0 0.0 0.0 0.00 0.00 0.00 54 998.0
20260502104944 95 0 0.0 0.0 0.00 0.00 0.00 54 998.0
20260502104422 95 0 0.0 0.0 0.00 0.00 0.00 54 998.0
20260502103900 95 0 0.0 0.0 0.00 0.00 0.00 54 998.0
20260502103338 95 0 0.0 0.0 0.00 0.00 0.00 54 997.0
20260502102816 95 0 0.0 0.0 0.00 0.00 0.00 54 997.0
20260502102254 95 0 0.0 0.0 0.00 0.00 0.00 54 997.0
20260502101732 95 0 0.0 0.0 0.00 0.00 0.00 54 997.0
20260502101210 95 0 0.0 0.0 0.00 0.00 0.00 54 997.0
20260502100649 95 0 0.0 0.0 0.00 0.00 0.00 53 997.0
20260502100126 95 0 0.0 0.0 0.00 0.00 0.00 53 997.0
20260502091308 96 0 0.0 0.0 0.00 0.00 0.00 52 997.0
20260502090746 96 0 0.0 0.0 0.00 0.00 0.00 52 997.0
20260502090224 96 0 0.0 0.0 0.00 0.00 0.00 52 997.0
20260502064519 98 0 0.0 0.0 0.00 0.00 0.00 51 996.0
20260502063957 96 0 0.0 0.0 0.00 0.00 0.00 53 996.0
20260502063435 98 0 0.0 0.0 0.00 0.00 0.00 52 997.0
20260502062913 98 0 0.0 0.0 0.00 0.00 0.00 52 997.0
20260502062351 98 0 0.0 0.0 0.00 0.00 0.00 51 997.0
20260502061829 98 0 0.0 0.0 0.00 0.00 0.00 52 997.0
20260502055313 97 0 0.0 0.0 0.00 0.00 0.00 52 997.0
20260502054750 98 0 0.0 0.0 0.00 0.00 0.00 51 997.0
20260502054229 98 0 0.0 0.0 0.00 0.00 0.00 52 997.0
20260502053711 96 0 0.0 0.0 0.00 0.00 0.00 54 997.0
20260502053144 98 0 0.0 0.0 0.00 0.00 0.00 51 998.0
20260502052622 98 0 0.0 0.0 0.00 0.00 0.00 51 998.0
20260502052100 97 0 0.0 0.0 0.00 0.00 0.00 53 998.0
20260502051538 98 0 0.0 0.0 0.00 0.00 0.00 51 998.0
20260502051016 97 0 0.0 0.0 0.00 0.00 0.00 53 998.0
20260502050454 97 0 0.0 0.0 0.00 0.00 0.00 52 998.0
20260502045932 97 0 0.0 0.0 0.00 0.00 0.00 53 998.0
20260502045410 98 0 0.0 0.0 0.00 0.00 0.00 51 998.0
20260502044849 97 0 0.0 0.0 0.00 0.00 0.00 52 998.0
20260502044326 98 0 0.0 0.0 0.00 0.00 0.00 51 998.0
20260502043804 98 0 0.0 0.0 0.00 0.00 0.00 51 998.0
20260502043242 96 0 0.0 0.0 0.00 0.00 0.00 53 999.0
20260502042720 98 0 0.0 0.0 0.00 0.00 0.00 51 999.0
20260502042158 95 0 0.0 0.0 0.00 0.00 0.00 54 999.0
20260502041636 97 0 0.0 0.0 0.00 0.00 0.00 51 999.0
20260502041114 97 0 0.0 0.0 0.00 0.00 0.00 52 999.0
20260502040552 97 0 0.0 0.0 0.00 0.00 0.00 51 999.0
20260502040030 97 0 0.0 0.0 0.00 0.00 0.00 52 999.0
20260502035509 98 0 0.0 0.0 0.00 0.00 0.00 51 999.0
20260502034946 97 0 0.0 0.0 0.00 0.00 0.00 52 999.0
20260502034425 97 0 0.0 0.0 0.00 0.00 0.00 52 999.0
20260502033902 97 0 0.0 0.0 0.00 0.00 0.00 51 999.0
20260502033340 96 0 0.0 0.0 0.00 0.00 0.00 53 999.0
20260502032818 97 0 0.0 0.0 0.00 0.00 0.00 52 999.0
20260502032256 97 0 0.0 0.0 0.00 0.00 0.00 52 1000.0
20260502031734 97 0 0.0 0.0 0.00 0.00 0.00 51 1000.0
20260502031212 96 0 0.0 0.0 0.00 0.00 0.00 52 1000.0
20260502030650 98 0 0.0 0.0 0.00 0.00 0.00 51 1000.0
20260502030128 98 0 0.0 0.0 0.00 0.00 0.00 51 1000.0
20260502025606 96 0 0.0 0.0 0.00 0.00 0.00 53 1000.0
20260502025044 97 0 0.0 0.0 0.00 0.00 0.00 52 1000.0
20260502024522 96 0 0.0 0.0 0.00 0.00 0.00 53 1000.0
20260502024000 96 0 0.0 0.0 0.00 0.00 0.00 53 1000.0
20260502023438 97 0 0.0 0.0 0.00 0.00 0.00 52 1000.0
20260502022916 96 0 0.0 0.0 0.00 0.00 0.00 52 1000.0
20260502022354 96 0 0.0 0.0 0.00 0.00 0.00 53 1000.0
20260502021832 97 0 0.0 0.0 0.00 0.00 0.00 52 1000.0
20260502021310 96 0 0.0 0.0 0.00 0.00 0.00 54 1000.0
20260502020748 96 0 0.0 0.0 0.00 0.00 0.00 53 1000.0
20260502020226 96 0 0.0 0.0 0.00 0.00 0.00 53 1000.0
20260502015704 96 0 0.0 0.0 0.00 0.00 0.00 53 1000.0
20260502015142 96 0 0.0 0.0 0.00 0.00 0.00 53 1000.0
20260502014620 96 0 0.0 0.0 0.00 0.00 0.00 53 1000.0
20260502014058 95 0 0.0 0.0 0.00 0.00 0.00 53 1000.0
20260502013536 96 0 0.0 0.0 0.00 0.00 0.00 53 1000.0
20260502013014 96 0 0.0 0.0 0.00 0.00 0.00 53 1000.0
20260502012452 96 0 0.0 0.0 0.00 0.00 0.00 53 1000.0
20260502011930 96 0 0.0 0.0 0.00 0.00 0.00 53 1000.0
20260502011408 96 0 0.0 0.0 0.00 0.00 0.00 53 1000.0
20260502010846 96 0 0.0 0.0 0.00 0.00 0.00 54 1000.0
20260502010324 96 0 0.0 0.0 0.00 0.00 0.00 54 1000.0
20260502005802 96 0 0.0 0.0 0.00 0.00 0.00 54 1000.0
20260502005240 96 0 0.0 0.0 0.00 0.00 0.00 54 1000.0
20260502004718 96 0 0.0 0.0 0.00 0.00 0.00 54 1000.0
20260502004156 95 0 0.0 0.0 0.00 0.00 0.00 54 1000.0
20260502003634 95 0 0.0 0.0 0.00 0.00 0.00 54 1000.0
20260502003112 95 0 0.0 0.0 0.00 0.00 0.00 54 1000.0
20260502002552 95 0 0.0 0.0 0.00 0.00 0.00 55 1000.0
20260502002028 94 0 0.0 0.0 0.00 0.00 0.00 55 1000.0
20260502001506 94 0 0.0 0.0 0.00 0.00 0.00 55 1000.0
20260502000944 94 0 0.0 0.0 0.00 0.00 0.00 55 1000.0
20260502000424 93 0 0.0 0.0 0.00 0.00 0.00 56 1000.0
20260501235900 93 0 0.0 0.0 0.00 0.00 0.00 56 1000.0
20260501235338 92 0 0.0 0.0 0.00 0.00 0.00 57 1000.0
20260501234816 92 0 0.0 0.0 0.00 0.00 0.00 57 1000.0
20260501234255 92 0 0.0 0.0 0.00 0.00 0.00 57 1000.0
20260501233732 92 0 0.0 0.0 0.00 0.00 0.00 57 1000.0
20260501233210 92 0 0.0 0.0 0.00 0.00 0.00 57 1000.0
20260501232648 92 0 0.0 0.0 0.00 0.00 0.00 57 1000.0
20260501232126 91 0 0.0 0.0 0.00 0.00 0.00 57 1000.0
20260501231604 91 0 0.0 0.0 0.00 0.00 0.00 57 1000.0
20260501231042 91 0 0.0 0.0 0.00 0.00 0.00 57 1000.0
20260501230520 92 0 0.0 0.0 0.00 0.00 0.00 57 1000.0
20260501225958 91 0 0.0 0.0 0.00 0.00 0.00 57 1000.0
20260501225436 92 0 0.0 0.0 0.00 0.00 0.00 57 1000.0
20260501224914 92 0 0.0 0.0 0.00 0.00 0.00 57 1000.0
20260501224352 91 0 0.0 0.0 0.00 0.00 0.00 57 1000.0
20260501223830 91 0 0.0 0.0 0.00 0.00 0.00 57 1000.0
20260501223308 92 0 0.0 0.0 0.00 0.00 0.00 57 1000.0
20260501222746 91 0 0.0 0.0 0.00 0.00 0.00 57 1000.0
20260501222224 91 0 0.0 0.0 0.00 0.00 0.00 57 1000.0
20260501221702 91 0 0.0 0.0 0.00 0.00 0.00 57 999.0
20260501221140 91 0 0.0 0.0 0.00 0.00 0.00 57 999.0
20260501220618 91 0 0.0 0.0 0.00 0.00 0.00 57 999.0
20260501220056 91 0 0.0 0.0 0.00 0.00 0.00 57 999.0
20260501215534 91 0 0.0 0.0 0.00 0.00 0.00 57 999.0
20260501215012 91 0 0.0 0.0 0.00 0.00 0.00 57 999.0
20260501214450 91 0 0.0 0.0 0.00 0.00 0.00 57 999.0
20260501213928 91 0 0.0 0.0 0.00 0.00 0.00 57 999.0
20260501213406 91 0 0.0 0.0 0.00 0.00 0.00 57 999.0
20260501212846 91 0 0.0 0.0 0.00 0.00 0.00 57 999.0
20260501212322 91 0 0.0 0.0 0.00 0.00 0.00 57 999.0
20260501211800 91 0 0.0 0.0 0.00 0.00 0.00 57 999.0
20260501211238 91 0 0.0 0.0 0.00 0.00 0.00 57 999.0
20260501210716 91 0 0.0 0.0 0.00 0.00 0.00 57 999.0
20260501210154 91 0 0.0 0.0 0.00 0.00 0.00 58 999.0
20260501205632 91 0 0.0 0.0 0.00 0.00 0.00 57 999.0
20260501205110 91 0 0.0 0.0 0.00 0.00 0.00 57 999.0
20260501204548 91 0 0.0 0.0 0.00 0.00 0.00 57 999.0
20260501204026 91 0 0.0 0.0 0.00 0.00 0.00 57 999.0
20260501203504 91 0 0.0 0.0 0.00 0.00 0.00 57 998.0
20260501202942 91 0 0.0 0.0 0.00 0.00 0.00 57 998.0
20260501202420 92 0 0.0 0.0 0.00 0.00 0.00 57 998.0
20260501201858 92 0 0.0 0.0 0.00 0.00 0.00 57 998.0
20260501201336 92 0 0.0 0.0 0.00 0.00 0.00 57 998.0
20260501200814 92 0 0.0 0.0 0.00 0.00 0.00 57 998.0
20260501200252 92 0 0.0 0.0 0.00 0.00 0.00 57 998.0
20260501195730 92 0 0.0 0.0 0.00 0.00 0.00 57 998.0
20260501195208 92 0 0.0 0.0 0.00 0.00 0.00 57 998.0
20260501194646 92 0 0.0 0.0 0.00 0.00 0.00 57 998.0
20260501194124 92 0 0.0 0.0 0.00 0.00 0.00 57 998.0
20260501193602 92 0 0.0 0.0 0.00 0.00 0.00 57 998.0
20260501193040 92 0 0.0 0.0 0.00 0.00 0.00 57 998.0
20260501192518 92 0 0.0 0.0 0.00 0.00 0.00 57 998.0
20260501191956 92 0 0.0 0.0 0.00 0.00 0.00 57 998.0
20260501191434 92 0 0.0 0.0 0.00 0.00 0.00 57 998.0
20260501190912 92 0 0.0 0.0 0.00 0.00 0.00 57 998.0
20260501190350 92 0 0.0 0.0 0.00 0.00 0.00 57 998.0
20260501185828 92 0 0.0 0.0 0.00 0.00 0.00 57 998.0
20260501185306 92 0 0.0 0.0 0.00 0.00 0.00 57 998.0
20260501184743 92 0 0.0 0.0 0.00 0.00 0.00 57 998.0
20260501184221 92 0 0.0 0.0 0.00 0.00 0.00 57 998.0
20260501183659 92 0 0.0 0.0 0.00 0.00 0.00 57 998.0
20260501181143 92 0 0.0 0.0 0.00 0.00 0.00 56 998.0
20260501180621 92 0 0.0 0.0 0.00 0.00 0.00 57 998.0
20260501180059 92 0 0.0 0.0 0.00 0.00 0.00 56 998.0
20260501175537 92 0 0.0 0.0 0.00 0.00 0.00 56 998.0
20260501175015 92 0 0.0 0.0 0.00 0.00 0.00 56 998.0
20260501174453 92 0 0.0 0.0 0.00 0.00 0.00 56 998.0
20260501173931 92 0 0.0 0.0 0.00 0.00 0.00 56 998.0
20260501173409 92 0 0.0 0.0 0.00 0.00 0.00 56 999.0
20260501172847 92 0 0.0 0.0 0.00 0.00 0.00 57 999.0
20260501172325 92 0 0.0 0.0 0.00 0.00 0.00 57 999.0
20260501171803 92 0 0.0 0.0 0.00 0.00 0.00 58 999.0
20260501171241 93 0 0.0 0.0 0.00 0.00 0.00 58 999.0